Flag for Germany Weather past 2 weeks in Neuruppin, Brandenburg, Germany

Now
64 °F

Overcast.


Feels Like: 64 °F
Forecast: 63 / 83 °F
Wind: 2 mph from East

Location: Neuruppin

Current Time: Jul 25, 2014 at 11:13:24 PM

Latest Report: Jul 25, 2014 at 10:00 PM


Visibility: 6 mi

Pressure: 29.95 "Hg

Humidity: 92%

Dew point: 61 °F

Location of NeuruppinLocation

Historic Weather in Neuruppin — Graph

°F

Neuruppin temperature yesterday

Maximum temperature yesterday: 76 °F (at 2:00 PM)
Minimum temperature yesterday: 62 °F (at 6:00 AM)
Average temperature yesterday: 67 °F

Past Weeks' High & Low Weather Summary

 TemperatureHumidityPressure
High90 °F (Jul 20, 4:00 PM)97% (Jul 13, 6:00 AM)30.19 "Hg (Jul 13, 6:00 AM)
Low51 °F (Jul 13, 5:00 AM)34% (Jul 18, 3:00 PM)29.72 "Hg (Jul 13, 6:00 PM)
Average69 °F70%29.98 "Hg
* Reported Jul 10 10:00 PM — Jul 25 10:00 PM, Neuruppin, Weather by CustomWeather, © 2014

Note: Actual official high and low records may vary slightly from our data, if they occured in-between our weather recording intervals... More about our weather records

Advertising

Neuruppin weather history for previous 24 hours

 ConditionsComfort  
Time TempWeatherWind HumidityBarometerVisibility
10:00 PM
Jul 25
64 °FOvercast.2 mph92%29.95 "Hg6 mi
9:00 PM64 °FOvercast.2 mph92%29.95 "Hg6 mi
8:00 PM65 °FOvercast.3 mph89%29.95 "Hg6 mi
7:00 PM73 °FOvercast.3 mph70%29.93 "Hg6 mi
6:00 PM74 °FOvercast.3 mph62%29.93 "Hg6 mi
5:00 PM73 °FOvercast.2 mph62%29.94 "Hg6 mi
4:00 PM71 °FOvercast.2 mph70%29.94 "Hg6 mi
3:00 PM71 °FOvercast.5 mph65%29.96 "Hg6 mi
2:00 PM72 °FOvercast.1 mph70%29.97 "Hg6 mi
1:00 PM72 °FOvercast.2 mph66%29.98 "Hg6 mi
12:00 PM73 °FOvercast.2 mph68%29.98 "Hg6 mi
11:00 AM71 °FOvercast.1 mph73%29.98 "Hg6 mi
10:00 AM65 °FOvercast.2 mph84%29.98 "Hg6 mi
9:00 AM65 °FOvercast.2 mph85%29.98 "Hg6 mi
8:00 AM64 °FOvercast.3 mph86%29.98 "Hg7 mi
7:00 AM63 °FOvercast.3 mph88%29.97 "Hg6 mi
6:00 AM64 °FOvercast.5 mph88%29.97 "Hg6 mi
4:00 AM63 °FOvercast.3 mph89%29.97 "Hg6 mi
3:00 AM63 °FOvercast.3 mph92%29.98 "Hg6 mi
2:00 AM63 °FOvercast.1 mph95%30.00 "Hg6 mi
1:00 AM62 °FOvercast.2 mph93%30.01 "Hg6 mi
12:00 AM62 °FOvercast.2 mph92%30.01 "Hg6 mi
Weather by CustomWeather, © 2014

See weather overviewHow to use our weather pages